This is the latest recevied weather packets stored in our database for station/object KA1BMF-13. If no packets are shown the sender has not sent any weather packets the latest 10 day(s).
| Time | Temp. | Humidity | Pressure | Rain* | Wind** | Luminosity | Snow |
|---|---|---|---|---|---|---|---|
| 1787976917 | 20° C | 74% | 1018.6 hPa | 0 mm | - | 0 W/m² | - |
| 1787976321 | 20° C | 76% | 1018.6 hPa | 0 mm | - | 0 W/m² | - |
| 1787975718 | 20.56° C | 78% | 1018.4 hPa | 0 mm | - | 0 W/m² | - |
| 1787975118 | 20° C | 80% | 1018.3 hPa | 0 mm | - | 0 W/m² | - |
| 1787974518 | 20° C | 84% | 1018.2 hPa | 0 mm | - | 0 W/m² | - |
| 1787973918 | 20° C | 87% | 1018.1 hPa | 0 mm | - | 0 W/m² | - |
| 1787973319 | 20° C | 90% | 1018 hPa | 0 mm | - | 0 W/m² | - |
| 1787972718 | 20° C | 90% | 1017.8 hPa | 0 mm | - | 0 W/m² | - |
| 1787972119 | 20° C | 90% | 1017.8 hPa | 0 mm | - | 0 W/m² | - |
| 1787971519 | 20° C | 90% | 1017.7 hPa | 0 mm | - | 0 W/m² | - |
| 1787970919 | 20° C | 90% | 1017.6 hPa | 0 mm | - | 0 W/m² | - |
| 1787970316 | 20° C | 90% | 1017.6 hPa | 0 mm | - | 0 W/m² | - |
| 1787969719 | 20.56° C | 90% | 1017.5 hPa | 0 mm | - | 0 W/m² | - |
| 1787969119 | 20.56° C | 91% | 1017.5 hPa | 0 mm | - | 0 W/m² | - |
| 1787968519 | 20.56° C | 90% | 1017.3 hPa | 0 mm | - | 0 W/m² | - |
| 1787967917 | 21.11° C | 89% | 1017.2 hPa | 0 mm | - | 0 W/m² | - |
| 1787967317 | 21.11° C | 89% | 1017.1 hPa | 0 mm | - | 0 W/m² | - |
| 1787966717 | 21.11° C | 89% | 1016.9 hPa | 0 mm | - | 0 W/m² | - |
| 1787966120 | 21.11° C | 89% | 1016.8 hPa | 0 mm | - | 0 W/m² | - |
| 1787965518 | 21.67° C | 89% | 1016.7 hPa | 0 mm | - | 0 W/m² | - |
| 1787964918 | 21.67° C | 88% | 1016.6 hPa | 0 mm | - | 0 W/m² | - |
| 1787964318 | 21.67° C | 88% | 1016.6 hPa | 0 mm | - | 0 W/m² | - |
| 1787963718 | 21.67° C | 89% | 1016.5 hPa | 0 mm | - | 0 W/m² | - |
| 1787963118 | 22.22° C | 89% | 1016.3 hPa | 0 mm | - | 0 W/m² | - |
| 1787962518 | 22.22° C | 89% | 1016.2 hPa | 0 mm | - | 0 W/m² | - |
* Rain latest hour (hover to see other rain measurements)
** Current wind speed in m/s (hover to see current wind gust speed)